Tracking 29489 objects as of 9-Sep-2024
HD Live streaming from Space Station
objects crossing your sky now

FENGYUN 1C DEB

Track FENGYUN 1C DEB now!
10-day predictions


NORAD ID: 29897
Int'l Code: 1999-025GT
Perigee: 838.8 km
Apogee: 1,289.3 km
Inclination: 98.6 °
Period: 106.3 minutes
Semi major axis: 7435 km
RCS: 0.0153 m2 (small)
Launch date: May 10, 1999
Source: People's Republic of China (PRC)
Launch site: Taiyaun Space Center, China (TSC)

Note: This is SATELLITE DEBRIS
Your satellite tracking list
Your tracking list is empty




NASA's NSSDC Master Catalog

Two Line Element Set (TLE):
1 29897U 99025GT  24252.74548748  .00005260  00000-0  58171-2 0  9999
2 29897  98.6371 167.0516 0302965 253.8658 164.6286 13.54187661867061
Source of the keplerian elements: AFSPC